Regional Weather Roundup
Issued by NWS

Home | Current Version | Previous Version | Graphics & Text | Print | Product List | Glossary Off
Versions: 1 2 3 4 5 6 7 8 9 10 11 12 13 14 15 16 17 18 19 20 21 22 23 24 25 26 27 28 29 30 31 32 33 34 35 36 37 38 39 40 41 42 43 44 45 46 47 48 49 50

000
ASUS43 KMPX 231401
RWRMN
WEATHER ROUNDUP FOR MINNESOTA
NATIONAL WEATHER SERVICE TWIN CITIES/CHANHASSEN MN
900 AM CDT THU MAR 23 2017


NOTE: "FAIR" INDICATES FEW OR NO CLOUDS BELOW 12,000 FEET WITH NO
SIGNIFICANT WEATHER AND/OR OBSTRUCTIONS TO VISIBILITY. N/A MEANS
CURRENT SKY AND/OR WEATHER CONDITIONS ARE NOT AVAILABLE.

MNZ060>063-068>070-231500-
   Twin Cities Metro

CITY           SKY/WX    TMP DP  RH WIND       PRES   REMARKS
TWIN CITIES    CLOUDY    38  22  52 SE12      30.11F
ST PAUL        CLOUDY    37  23  56 SE14G24   30.13F
CRYSTAL        CLOUDY    37  20  50 SE22      30.09F
BLAINE         CLOUDY    39  23  52 S17       30.10F
LAKEVILLE      CLOUDY    36  25  64 SE13      30.10F
EDEN PRAIRIE   CLOUDY    39  23  52 SE14      30.08F
SOUTH ST PAUL  CLOUDY    37  22  55 SE10G18   30.12F
LAKE ELMO      CLOUDY    36  23  60 SE17G23   30.12F
$$
MNZ001>005-007-008-013>017-022>024-027-028-231500-
   Northwest Minnesota

CITY           SKY/WX    TMP DP  RH WIND       PRES   REMARKS
BEMIDJI        CLOUDY    35  21  57 S15G21    29.94F WCI  25
HALLOCK        CLOUDY    34  28  80 S16       29.85F WCI  23
ROSEAU         MOSUNNY   36  25  64 S10       29.88F
WARROAD        MOSUNNY   34  25  69 S9        29.89F WCI  26
THIEF RVR FALL CLOUDY    36  24  62 S16       29.89F
CROOKSTON      CLOUDY    36  27  69 S12       29.89F
FOSSTON        CLOUDY    36  23  60 S14G20    29.90F
DETROIT LAKES  CLOUDY    36  27  69 S17       29.93F
MOORHEAD       CLOUDY    36  25  64 SE21G28   29.89F
PARK RAPIDS    CLOUDY    36  20  52 S18       29.95F
MAHNOMEN       FAIR      36  24  61 S15G23    29.89F
$$
MNZ006-009>011-018-025>026-231500-
   North Central Minnesota

CITY           SKY/WX    TMP DP  RH WIND       PRES   REMARKS
BAUDETTE       CLOUDY    35  20  54 S15G25    29.91F WCI  25
FLAG ISLAND    CLOUDY    28  21  74 S14       29.90F WCI  17
INTL FALLS     SUNNY     34  21  59 VRB6      29.96F WCI  29
WASKISH        MOSUNNY   36  23  60 S9G20     29.92F
BIG FORK       CLOUDY    34  21  60 S15       29.98F WCI  24
LONGVILLE      CLOUDY    34  21  60 SE9       29.99F WCI  26
GRAND RAPIDS   CLOUDY    32  21  64 S16       30.03S WCI  21
CRANE LAKE     CLOUDY    30  21  69 S8G16     30.03F WCI  23
ORR            CLOUDY    32  19  59 S15       29.99R WCI  22
COOK           CLOUDY    32  23  69 S13G18    30.02S WCI  22
WALKER         FAIR      35  21  57 S12       29.96F WCI  26
$$
MNZ012-019>021-037-231500-
   Northeast Minnesota

CITY           SKY/WX    TMP DP  RH WIND       PRES   REMARKS
DULUTH         CLOUDY    30  26  85 SE14      30.07F WCI  19
ELY            CLOUDY    30  23  74 S10G20    30.04F WCI  21
HIBBING        CLOUDY    30  22  72 S9G18     30.04F WCI  22
EVELETH        CLOUDY    32  21  62 S12G17    30.05F WCI  23
DULUTH HARBOR  CLOUDY    34  27  75 CALM      30.13F
TWO HARBORS    CLOUDY    34  28  80 SE6       30.10F WCI  29
SILVER BAY     CLOUDY    30  28  93 SE5       30.11F WCI  25
GRAND MARAIS     N/A     32  29  88 S14       30.18F WCI  22
G MARAIS ARPRT MIX PCPN  25  21  86 S8G17     30.11F VSB 1/2 WCI  16
$$
MNZ029>031-032-039>041-046>048-054>057-064-231500-
   West Central Minnesota

CITY           SKY/WX    TMP DP  RH WIND       PRES   REMARKS
FERGUS FALLS   CLOUDY    37  25  60 SE23G31   29.96F
WHEATON        MOSUNNY   37  27  65 SE23G29   29.91F
MORRIS         CLOUDY    37  25  60 SE22      29.93F
ALEXANDRIA     CLOUDY    36  23  59 S18       29.98F
ELBOW LAKE     CLOUDY    36  24  62 SE25      29.93F
WADENA         CLOUDY    36  21  55 S15G21    29.97F
GLENWOOD       CLOUDY    36  25  64 SE20G25   29.99S
APPLETON       CLOUDY    39  25  56 SE16      29.94F
BENSON         CLOUDY    39  21  48 S15G23    29.99F
ORTONVILLE     CLOUDY    37  27  65 SE16      29.92F
MADISON        CLOUDY    41  28  60 SE16      29.94F
WILLMAR        CLOUDY    37  25  60 SE18G24   30.01F
$$
MNZ033>034-036-042>043-049>051-058-059-231500-
   Central Minnesota

CITY           SKY/WX    TMP DP  RH WIND       PRES   REMARKS
ST CLOUD       CLOUDY    37  23  56 SE16      30.04F
SAUK CENTRE    CLOUDY    35  23  62 SE16      30.01F WCI  25
PAYNESVILLE      N/A     36  23  60 SE15      30.03F
AITKIN         CLOUDY    37  19  48 SE15G25   30.01F
PINE RIVER     CLOUDY    36  23  60 S10G24    30.03F
BRAINERD       CLOUDY    36  21  54 S13       30.02F
STAPLES        CLOUDY    36  21  55 S13G20    29.99F
LONG PRAIRIE   CLOUDY    34  23  64 SE16      30.01F WCI  23
LITTLE FALLS   CLOUDY    36  21  55 SE16      30.04S
LITCHFIELD     CLOUDY    37  25  60 SE13      30.04F
BUFFALO        CLOUDY    37  23  56 SE8G18    30.07F
MAPLE LAKE     CLOUDY    38  26  63 SE15G21   30.06F
HUTCHINSON     CLOUDY    37  26  65 SE13G20   30.05F
$$
MNZ037-044-045-052-053-231500-
   East Central Minnesota

CITY           SKY/WX    TMP DP  RH WIND       PRES   REMARKS
PRINCETON      CLOUDY    39  23  52 SE13G21   30.07F
MORA           CLOUDY    34  23  64 SE6       30.09F WCI  29
CAMBRIDGE      CLOUDY    39  25  56 SE10G16   30.07F
RUSH CITY      CLOUDY    35  22  61 SE10G16   30.11F WCI  27
MOOSE LAKE     CLOUDY    32  23  69 S7        30.06F WCI  26
HINCKLEY       CLOUDY    34  23  64 SE10      30.10F WCI  26
CLOQUET        CLOUDY    30  23  74 SE9       30.07F WCI  22
MCGREGOR       CLOUDY    34  23  64 S13G20    30.04F WCI  25
$$
MNZ071>073-080-081-089-090-097-098-231500-
   Southwest Minnesota

CITY           SKY/WX    TMP DP  RH WIND       PRES   REMARKS
MONTEVIDEO     CLOUDY    37  25  60 S15G21    29.98F
GRANITE FALLS  CLOUDY    39  26  60 SE16      30.00S
CANBY          MOSUNNY   40  27  60 SE14      29.95F
MARSHALL       PTSUNNY   39  23  52 S21G26    29.96F
REDWOOD FALLS  CLOUDY    37  23  56 SE16      30.01F
OLIVIA         CLOUDY    36  27  69 SE15G23   30.00F
PIPESTONE      MOSUNNY   37  21  52 S15G24    29.92F
WINDOM         MOSUNNY   36  23  60 SE18G25   30.00F
WORTHINGTON    PTSUNNY   37  22  54 SE18      29.97F
JACKSON        CLOUDY    36  23  60 SE23      30.02F
TRACY          CLOUDY    39  25  57 S20G26    29.96S
SLAYTON        CLOUDY    35  25  65 SE20      29.97S WCI  24
$$
MNZ065>067-074>077-082>085-091>093-231500-
   South Central Minnesota

CITY           SKY/WX    TMP DP  RH WIND       PRES   REMARKS
MANKATO        CLOUDY    36  24  62 S18G28    30.06F
NEW ULM        CLOUDY    36  25  64 SE15      30.03F
ST JAMES       CLOUDY    36  27  69 SE16      30.05F
FAIRMONT       CLOUDY    36  24  62 S22G29    30.04F
GLENCOE        CLOUDY    38  28  67 SE9G17    30.06F
FARIBAULT      CLOUDY    36  25  64 SE13      30.10F
OWATONNA       CLOUDY    36  21  55 SE21G28   30.09F
WASECA         CLOUDY    36  27  69 SE16G24   30.10F
ALBERT LEA     CLOUDY    34  23  64 SE24G32   30.09F WCI  21
$$
MNZ078>079-086>088-094>096-231500-
   Southeast Minnesota

CITY           SKY/WX    TMP DP  RH WIND       PRES   REMARKS
ROCHESTER      CLOUDY    34  22  61 SE23G31   30.13F WCI  22
RED WING       CLOUDY    37  18  44 SE12G17   30.15F
STANTON        CLOUDY    38  23  56 SE9G16    30.10F
DODGE CENTER   CLOUDY    34  23  64 SE20G25   30.11F WCI  22
WINONA         CLOUDY    36  23  60 SE13      30.20F
AUSTIN         CLOUDY    34  23  64 SE13G22   30.12F WCI  25
PRESTON        CLOUDY    33  21  61 SE14G22   30.16F WCI  23
$$
ABBREVIATIONS USED IN REMARKS
   TC - TEMPERATURES IN CELSIUS
  WCI - WIND CHILL INDEX
   HX - HEAT INDEX
  VSB - VISIBILITY
$$




USA.gov is the U.S. government's official web portal to all federal, state and local government web resources and services.